Wind_Speed
40 35 35 39 37 32 28 31 30 25 20 17 15 12 8 4 2 8 15 16 16 19 23 27 31 34 31 39 45 44 45 45 39 37 34 33 34 33 32 34 36 37 38
42 39 36 38 37 32 29 31 31 24 18 17 17 15 12 8 5 4 7 14 19 17 18 19 27 32 33 33 31 36 44 45 42 40 37 34 34 32 32 34 36 38 38
42 38 36 38 40 34 27 26 28 24 18 15 16 15 15 15 11 6 5 6 10 13 16 14 17 22 26 31 37 36 30 31 38 35 31 30 31 29 33 32 34 34 36
41 41 38 41 43 37 32 26 23 25 20 15 12 12 12 11 12 10 10 9 4 4 6 11 14 17 21 21 22 30 35 32 30 31 26 28 31 30 29 29 29 30 29
40 39 42 40 43 41 39 33 25 23 23 19 16 13 13 10 3 9 10 11 16 14 6 7 11 13 14 16 15 16 21 29 31 27 27 30 29 28 26 25 27 28 28
39 39 42 42 41 42 44 42 37 32 30 27 23 19 15 10 5 5 3 7 15 10 7 1 6 11 11 11 11 13 19 23 25 27 25 24 22 25 25 23 24 25 24
37 38 40 41 43 43 42 40 38 38 35 34 30 26 18 8 3 4 5 6 4 10 6 5 1 6 12 17 18 18 18 18 19 20 21 21 21 17 18 14 17 17 14
37 38 39 40 41 41 41 41 40 39 38 37 34 37 36 34 26 1 1 4 2 1 3 2 2 3 4 11 17 18 19 20 22 24 22 23 22 21 19 20 19 17 20
37 39 39 40 41 42 43 44 43 41 39 41 40 35 39 41 34 25 11 8 2 2 2 2 5 6 9 10 8 10 11 12 11 14 17 20 20 23 27 27 20 21 21
37 39 38 39 41 42 45 45 45 43 41 41 40 38 39 40 36 37 29 14 9 5 5 4 5 3 8 11 13 14 14 14 19 19 17 21 23 25 28 19 17 12 14
35 35 36 39 41 42 44 45 46 44 42 41 39 38 38 38 37 35 32 27 26 24 22 22 23 22 22 22 19 14 10 6 4 3 1 4 11 14 12 8 5 7 12
31 32 34 37 39 40 42 43 45 42 41 42 42 41 39 36 35 34 32 30 28 25 26 25 24 21 20 19 20 20 17 14 13 12 12 12 12 10 8 8 9 9 11
28 29 33 36 37 38 41 43 45 44 43 46 47 46 43 40 38 35 33 31 29 28 27 26 24 23 24 24 24 23 17 13 9 7 7 8 7 8 8 7 6 7 6
26 28 32 34 36 38 40 42 44 47 46 47 48 47 46 45 43 40 39 36 34 32 30 29 27 26 25 26 23 23 22 21 19 18 17 17 16 15 15 14 12 12 10
25 28 31 33 34 37 39 43 45 46 48 46 48 46 46 46 44 42 41 41 41 40 37 34 32 30 28 26 25 25 23 22 20 20 20 19 17 16 15 15 13 13 9
23 26 29 31 33 35 38 41 42 42 45 44 42 42 42 41 40 40 40 41 40 40 41 43 43 41 38 35 31 29 26 24 23 22 21 20 17 16 15 13 12 10 9
21 25 27 29 31 33 36 38 40 40 41 42 41 38 38 36 36 37 37 38 39 40 44 45 45 44 43 41 38 36 34 32 31 28 27 25 23 21 20 18 16 14 11
19 22 24 27 29 30 33 36 37 37 38 40 40 37 34 32 30 31 33 33 35 37 39 41 42 41 40 41 42 43 42 38 34 31 28 27 26 24 23 21 19 16 15
17 19 22 24 26 28 31 33 35 36 37 38 38 35 34 31 27 29 30 33 34 35 36 36 37 36 37 39 39 38 37 38 38 38 35 30 27 24 22 20 18 16 14
15 17 20 21 23 25 27 29 32 33 34 35 35 37 34 27 30 35 36 36 36 36 36 37 37 36 36 36 36 36 35 35 34 33 31 30 29 28 27 25 22 21 19
13 14 17 18 19 21 24 26 28 30 31 33 34 34 33 32 34 35 36 37 38 37 37 36 35 35 35 34 34 34 34 34 34 33 32 31 31 32 35 36 36 35 31
11 11 14 15 16 18 20 23 25 28 29 31 32 32 32 32 35 36 35 36 36 35 35 35 35 35 36 36 37 38 38 38 37 36 34 33 32 34 35 35 35 38 41
7 8 10 12 13 14 17 20 22 24 26 28 29 29 30 31 32 33 35 37 37 37 37 36 37 36 36 36 37 37 38 39 39 39 38 36 35 34 34 35 37 36 39
4 5 6 8 10 11 13 15 18 20 23 24 26 27 28 29 30 31 32 33 33 33 33 33 33 34 34 34 34 34 35 36 36 35 36 36 36 37 36 36 37 39 41
3 2 3 4 6 7 8 10 13 15 18 20 22 24 25 26 27 28 29 30 31 31 32 33 33 33 33 34 35 36 37 37 36 35 33 32 31 31 32 33 34 36 37
5 4 3 3 3 4 4 6 8 9 12 15 18 19 21 22 23 24 25 26 27 28 29 30 31 31 32 32 33 34 34 35 35 35 34 33 32 32 32 32 32 33 34
Wind_Direction
5 1 360 1 6 6 7 5 1 3 14 21 24 23 11 350 266 262 251 243 249 260 251 242 243 238 241 240 239 242 245 248 249 251 247 247 247 249 253 260 265 264 258
8 11 11 10 10 11 16 12 13 15 25 27 30 33 28 10 356 307 278 255 243 247 255 250 240 235 239 232 239 244 245 249 251 251 256 254 254 256 258 260 262 265 263
13 16 17 16 12 11 15 15 16 17 20 23 19 19 23 21 12 355 278 268 257 260 259 249 241 238 237 240 242 241 238 247 249 250 252 254 255 254 250 256 261 263 260
19 20 21 23 18 21 21 13 12 17 19 13 8 5 3 8 29 53 67 58 11 294 274 253 243 234 232 239 240 238 241 239 243 239 245 252 254 249 252 257 258 260 259
22 24 29 28 29 29 33 28 26 18 12 10 9 3 2 349 36 97 84 59 15 7 273 247 233 231 229 230 239 243 236 234 240 243 250 253 250 253 256 254 255 258 256
24 27 32 31 32 33 34 34 30 22 14 3 358 347 332 343 355 191 121 358 336 14 20 358 210 206 205 215 233 229 233 239 238 243 251 254 256 262 262 264 261 260 258
25 27 33 33 34 34 33 33 34 31 27 26 27 26 22 10 273 101 97 82 35 4 10 42 145 195 201 195 195 209 220 227 233 241 249 251 255 257 248 249 258 263 256
26 26 32 34 34 34 33 33 32 32 32 33 29 35 39 41 42 155 33 315 286 341 120 44 333 179 222 211 212 217 226 233 241 252 255 257 252 235 233 251 272 270 265
28 27 29 34 33 34 35 34 33 33 35 38 40 36 45 46 43 40 50 49 224 119 111 261 256 251 232 225 244 236 242 248 262 255 260 250 242 239 246 267 242 260 265
29 29 28 33 35 33 36 34 33 34 36 39 43 43 44 50 47 47 47 49 65 70 28 7 23 321 248 237 236 236 252 265 266 272 259 262 249 269 257 232 229 234 256
29 30 31 35 34 33 35 34 32 32 37 44 48 51 49 52 52 51 53 55 58 64 67 69 67 64 67 72 77 82 87 72 54 28 78 178 161 146 134 134 169 213 227
30 32 37 39 37 34 35 37 37 35 39 47 51 53 53 52 54 56 55 54 57 63 66 66 66 70 71 70 69 67 67 65 70 82 91 97 102 110 133 165 184 201 216
33 37 40 41 39 35 36 40 41 42 44 47 49 53 55 55 55 54 54 55 56 57 62 64 66 70 70 71 74 78 75 70 63 61 78 93 113 131 137 132 125 147 157
35 41 43 43 38 35 37 41 43 44 46 51 53 53 53 55 55 56 57 57 58 56 58 62 64 65 67 70 72 75 76 79 79 81 85 89 95 100 101 101 96 91 98
37 42 44 43 38 36 38 42 44 44 45 49 58 57 56 56 55 54 56 57 57 58 61 66 68 69 70 71 72 73 74 74 77 78 80 82 86 91 99 100 100 95 93
39 43 44 44 40 37 39 42 44 47 49 49 56 62 61 60 59 59 58 58 58 60 63 64 65 67 70 71 72 72 73 72 70 69 70 73 76 79 80 81 82 79 81
41 44 45 45 43 40 41 43 45 46 49 52 55 61 64 63 62 62 61 62 64 64 65 65 66 66 67 67 67 67 68 69 72 74 74 74 75 76 78 79 80 81 78
41 45 46 46 45 42 42 45 45 47 50 53 56 59 63 62 61 61 61 62 64 63 63 65 65 64 63 63 65 65 65 64 64 66 67 70 70 68 67 67 67 68 70
43 46 47 47 46 44 42 43 45 45 48 52 54 58 59 58 58 61 63 63 64 64 63 63 63 63 62 63 64 65 65 64 62 63 69 72 72 72 70 68 66 64 62
47 49 50 48 48 48 46 44 46 46 48 51 54 56 57 58 57 59 62 65 66 66 65 65 65 65 63 62 60 58 57 56 57 57 59 60 59 56 58 59 64 70 73
55 55 55 52 52 51 51 49 47 49 50 51 53 56 56 56 59 59 60 64 66 67 69 68 64 62 58 56 56 56 57 59 61 61 60 62 63 61 60 62 63 63 62
63 60 62 58 52 53 53 53 50 48 50 52 53 54 56 56 58 60 60 60 62 61 60 60 60 60 60 59 60 62 63 63 64 65 66 68 72 75 74 70 64 62 65
73 70 69 66 58 54 53 54 52 51 49 51 54 55 55 56 57 59 60 61 61 62 62 62 61 61 61 61 60 60 62 63 64 64 65 66 66 67 66 67 68 64 63
87 85 79 77 68 60 56 54 55 55 53 50 52 55 57 57 58 59 60 60 60 60 60 59 58 58 58 59 60 60 61 62 62 62 61 61 62 64 65 65 67 68 67
140 127 111 96 85 72 66 61 55 54 56 54 52 53 55 56 57 58 59 60 60 61 61 62 62 62 61 61 61 60 60 61 62 63 62 61 61 63 64 65 65 65 65
174 184 184 152 134 107 79 72 65 58 54 54 54 53 53 55 56 57 58 58 59 59 59 58 59 59 59 60 60 61 62 62 62 62 62 62 62 63 63 63 65 67 69
Height
2987 2978 2970 2960 2949 2940 2933 2925 2917 2911 2904 2899 2895 2891 2888 2886 2884 2885 2886 2887 2889 2891 2893 2895 2898 2903 2906 2911 2916 2919 2923 2926 2929 2931 2934 2938 2941 2944 2946 2946 2948 2949 2950
2988 2978 2969 2960 2950 2941 2933 2926 2919 2913 2907 2903 2898 2894 2891 2888 2885 2883 2883 2884 2885 2886 2888 2888 2892 2895 2898 2903 2907 2911 2914 2918 2920 2923 2926 2930 2933 2935 2937 2939 2939 2938 2937
2991 2981 2972 2962 2952 2942 2934 2928 2922 2916 2911 2905 2901 2897 2893 2889 2884 2882 2882 2882 2883 2883 2884 2885 2886 2888 2891 2896 2899 2903 2907 2911 2914 2916 2919 2923 2925 2927 2928 2930 2931 2929 2928
2995 2985 2975 2965 2954 2944 2936 2930 2924 2919 2913 2907 2902 2897 2894 2890 2887 2884 2882 2882 2882 2881 2881 2881 2882 2884 2887 2890 2892 2895 2900 2905 2908 2910 2913 2916 2918 2920 2921 2922 2923 2921 2921
3000 2990 2979 2970 2961 2952 2941 2933 2927 2922 2915 2908 2903 2897 2893 2890 2888 2886 2884 2882 2882 2881 2879 2879 2880 2882 2884 2887 2889 2892 2894 2899 2902 2905 2907 2910 2911 2914 2915 2915 2913 2913 2913
3005 2995 2984 2976 2967 2958 2949 2940 2934 2926 2919 2911 2903 2897 2892 2889 2886 2885 2884 2884 2883 2883 2880 2879 2878 2879 2882 2885 2888 2889 2892 2894 2896 2899 2901 2903 2906 2907 2907 2907 2907 2907 2910
3011 3001 2990 2982 2974 2965 2958 2949 2940 2932 2924 2915 2906 2898 2891 2886 2884 2884 2884 2884 2884 2883 2882 2880 2880 2879 2880 2881 2883 2885 2888 2890 2892 2894 2895 2897 2898 2900 2900 2901 2902 2903 2902
3016 3007 2998 2989 2981 2973 2965 2956 2948 2939 2930 2921 2912 2902 2895 2888 2883 2883 2884 2884 2884 2883 2882 2881 2881 2880 2881 2882 2882 2883 2884 2886 2887 2888 2889 2891 2892 2894 2895 2897 2899 2899 2899
3020 3012 3004 2995 2988 2980 2971 2963 2955 2946 2937 2928 2920 2911 2902 2896 2891 2888 2886 2886 2885 2884 2883 2883 2881 2880 2880 2880 2881 2882 2883 2883 2882 2883 2884 2884 2886 2888 2890 2891 2893 2895 2895
3024 3017 3011 3003 2995 2987 2978 2970 2962 2953 2945 2937 2929 2921 2912 2906 2902 2898 2894 2890 2888 2887 2885 2884 2881 2879 2877 2877 2877 2878 2878 2878 2878 2878 2880 2880 2881 2881 2884 2886 2888 2891 2892
3030 3024 3018 3011 3002 2994 2987 2979 2971 2962 2954 2946 2937 2929 2922 2915 2911 2907 2904 2900 2897 2894 2891 2889 2886 2884 2882 2879 2878 2877 2877 2877 2877 2876 2876 2877 2878 2879 2881 2885 2888 2890 2893
3037 3031 3025 3018 3010 3004 2997 2989 2981 2972 2962 2954 2946 2938 2931 2926 2921 2917 2912 2908 2905 2902 2897 2894 2891 2890 2888 2886 2884 2882 2882 2882 2882 2882 2882 2882 2883 2884 2886 2889 2891 2893 2893
3044 3038 3032 3025 3019 3013 3006 2998 2990 2980 2971 2962 2954 2947 2941 2936 2930 2926 2922 2917 2913 2909 2905 2901 2899 2896 2894 2892 2891 2889 2888 2888 2888 2888 2888 2888 2888 2889 2890 2892 2892 2893 2894
3050 3044 3038 3032 3025 3020 3014 3007 2998 2988 2980 2972 2965 2957 2951 2946 2941 2936 2931 2927 2922 2918 2914 2910 2907 2904 2902 2899 2899 2897 2896 2894 2894 2893 2893 2893 2894 2894 2894 2895 2895 2895 2896
3054 3049 3044 3038 3032 3026 3021 3014 3005 2997 2990 2983 2975 2969 2963 2958 2952 2948 2943 2937 2932 2927 2924 2921 2917 2913 2910 2908 2906 2904 2903 2902 2902 2900 2900 2899 2899 2900 2899 2898 2899 2899 2900
3060 3055 3049 3044 3039 3033 3027 3021 3014 3008 3001 2995 2987 2981 2976 2971 2966 2961 2956 2950 2945 2941 2938 2932 2927 2923 2920 2917 2915 2913 2911 2909 2908 2907 2906 2905 2905 2905 2904 2904 2903 2903 2903
3064 3059 3055 3050 3046 3040 3035 3029 3024 3017 3011 3006 2999 2992 2987 2982 2978 2973 2968 2964 2959 2956 2950 2944 2940 2936 2933 2930 2927 2924 2922 2919 2917 2916 2914 2913 2911 2911 2910 2909 2908 2907 2907
3068 3065 3060 3056 3052 3047 3042 3037 3033 3027 3021 3015 3008 3004 2998 2994 2990 2985 2981 2977 2972 2967 2962 2957 2953 2949 2945 2942 2939 2936 2933 2930 2928 2925 2923 2921 2919 2917 2915 2914 2913 2912 2911
3073 3070 3065 3062 3058 3053 3049 3045 3040 3035 3029 3024 3019 3015 3009 3005 3002 2998 2993 2987 2982 2978 2973 2969 2965 2961 2957 2954 2951 2948 2945 2941 2939 2937 2934 2931 2928 2926 2923 2921 2919 2917 2915
3076 3073 3070 3067 3063 3060 3056 3052 3048 3044 3038 3034 3030 3023 3019 3018 3013 3006 3002 2997 2993 2989 2985 2981 2977 2973 2969 2966 2962 2958 2954 2950 2947 2945 2942 2940 2937 2934 2930 2927 2925 2922 2919
3079 3077 3075 3072 3069 3067 3063 3059 3055 3052 3048 3043 3038 3033 3030 3027 3020 3015 3011 3008 3004 3001 2997 2994 2990 2985 2981 2977 2973 2969 2965 2961 2957 2954 2951 2948 2945 2941 2937 2934 2931 2929 2925
3081 3080 3079 3077 3074 3072 3069 3065 3062 3059 3055 3051 3047 3043 3039 3035 3030 3025 3020 3016 3013 3009 3005 3002 2999 2995 2991 2987 2983 2980 2976 2972 2968 2964 2961 2958 2956 2953 2950 2947 2944 2940 2935
3083 3082 3082 3080 3079 3076 3074 3071 3068 3065 3062 3058 3055 3052 3048 3044 3039 3035 3030 3026 3023 3019 3016 3012 3009 3005 3001 2997 2994 2990 2987 2983 2979 2975 2971 2968 2965 2962 2958 2956 2953 2949 2945
3084 3083 3084 3083 3082 3080 3078 3076 3074 3071 3068 3065 3062 3059 3056 3052 3048 3044 3040 3036 3033 3029 3026 3022 3018 3014 3011 3008 3004 3000 2997 2993 2989 2986 2982 2979 2976 2972 2969 2967 2963 2959 2955
3085 3085 3084 3085 3084 3083 3082 3080 3078 3076 3074 3071 3069 3065 3062 3059 3056 3053 3049 3045 3042 3039 3036 3032 3029 3025 3022 3018 3014 3010 3006 3003 3000 2996 2993 2990 2987 2984 2981 2978 2974 2971 2967
3084 3085 3085 3084 3085 3085 3084 3082 3081 3080 3078 3076 3074 3071 3069 3066 3063 3060 3057 3054 3051 3048 3044 3042 3038 3035 3031 3028 3024 3020 3017 3014 3010 3007 3004 3001 2998 2994 2991 2988 2984 2982 2979